This demonstration page uses our WeatherBlox Daily Observations layout. Learn more.

Left ArrowRight Arrow

Hourly Observations for October 28, 2016

Temp ( °F °C ) Dew Point ( °F °C ) Humidity (%) Winds ( mph kmh ) Pressure ( in mb ) Visibility ( mi km ) Precip ( " mm )
12:53 am 00:53 Clear 63 17.2 52 11.1 68 68 SE 8 13 30.08 1019 10 16 0.00 0.00
1:53 am 01:53 Clear 62 16.7 54 12.2 75 75 SE 8 13 30.07 1018 10 16 0.00 0.00
2:53 am 02:53 Clear 62 16.7 55 12.8 78 78 SE 9 15 30.05 1018 10 16 0.00 0.00
3:53 am 03:53 Clear 61 16.1 55 12.8 81 81 SE 8 13 30.05 1018 10 16 0.00 0.00
4:53 am 04:53 Clear 60 15.6 55 12.8 84 84 SE 7 11 30.03 1017 10 16 0.00 0.00
5:53 am 05:53 Clear 60 15.6 55 12.8 84 84 ESE 10 17 30.04 1017 10 16 0.00 0.00
6:53 am 06:53 Clear 60 15.6 55 12.8 84 84 ESE 13 20 30.05 1018 10 16 0.00 0.00
7:53 am 07:53 Clear 58 14.4 55 12.8 90 90 SE 6 9 30.06 1018 10 16 0.00 0.00
8:53 am 08:53 Sunny 60 15.6 55 12.8 84 84 S 3 6 30.09 1019 10 16 0.00 0.00
9:53 am 09:53 Sunny 66 18.9 56 13.3 70 70 SE 10 17 30.11 1020 10 16 0.00 0.00
10:53 am 10:53 Sunny 72 22.2 56 13.3 57 57 SSE 7 11 30.10 1019 10 16 0.00 0.00
11:53 am 11:53 Sunny 77 25 53 11.7 43 43 SSE 8 13 30.09 1019 10 16 0.00 0.00
12:53 pm 12:53 Sunny 79 26.1 52 11.1 39 39 S 6 9 30.06 1018 10 16 0.00 0.00
1:53 pm 13:53 Sunny 82 27.8 50 10 33 33 S 6 9 30.04 1017 10 16 0.00 0.00
2:53 pm 14:53 Sunny 82 27.8 47 8.3 29 29 S 9 15 30.00 1016 10 16 0.00 0.00
3:53 pm 15:53 Sunny 83 28.3 45 7.2 26 26 SSE 10 17 29.97 1015 10 16 0.00 0.00
4:53 pm 16:53 Sunny 83 28.3 44 6.7 25 25 SSW 6 9 29.96 1015 10 16 0.00 0.00
5:53 pm 17:53 Sunny 81 27.2 46 7.8 29 29 SSE 5 7 29.96 1015 10 16 0.00 0.00
6:53 pm 18:53 Sunny 78 25.6 47 8.3 33 33 SSE 5 7 29.97 1015 10 16 0.00 0.00
7:53 pm 19:53 Clear 74 23.3 46 7.8 37 37 ESE 5 7 30.00 1016 10 16 0.00 0.00
8:53 pm 20:53 Clear 70 21.1 47 8.3 44 44 ESE 7 11 30.01 1016 10 16 0.00 0.00
9:53 pm 21:53 Clear 69 20.6 47 8.3 45 45 SE 10 17 30.01 1016 10 16 0.00 0.00
10:53 pm 22:53 Clear 70 21.1 50 10 49 49 SSE 17 28 30.01 1016 10 16 0.00 0.00
11:53 pm 23:53 Clear 67 19.4 52 11.1 59 59 SE 12 19 30.01 1016 10 16 0.00 0.00

Powered by AerisWeather